Time,TemperatureF,DewpointF,PressureIn,WindDirection,WindDirectionDegrees,WindSpeedMPH,WindSpeedGustMPH,Humidity,HourlyPrecipIn,Conditions,Clouds,dailyrainin,SoftwareType,DateUTC
2013-04-29 00:03:00,56.5,54.0,29.95,South,180,2.0,2.0,91,0.00,,,0.06,meteohub,2013-04-29 05:03:00,
2013-04-29 00:08:00,56.3,54.0,29.95,SW,225,1.0,2.0,92,0.00,,,0.06,meteohub,2013-04-29 05:08:00,
2013-04-29 00:13:00,55.9,53.6,29.95,ESE,113,0.0,2.0,92,0.00,,,0.06,meteohub,2013-04-29 05:13:00,
2013-04-29 00:18:00,55.9,53.6,29.95,SE,135,0.0,2.0,92,0.00,,,0.06,meteohub,2013-04-29 05:18:00,
2013-04-29 00:23:00,55.8,53.4,29.95,SE,135,0.0,1.0,92,0.00,,,0.06,meteohub,2013-04-29 05:23:00,
2013-04-29 00:28:00,55.8,53.4,29.95,SE,135,2.0,2.0,92,0.00,,,0.06,meteohub,2013-04-29 05:28:00,
2013-04-29 00:33:00,55.8,53.8,29.96,South,180,2.0,2.0,93,0.00,,,0.06,meteohub,2013-04-29 05:33:00,
2013-04-29 00:38:00,55.8,53.8,29.96,SW,225,2.0,2.0,93,0.00,,,0.06,meteohub,2013-04-29 05:38:00,
2013-04-29 00:43:00,55.8,54.1,29.97,SW,225,2.0,4.0,94,0.00,,,0.06,meteohub,2013-04-29 05:43:00,
2013-04-29 00:48:00,55.8,54.3,29.98,SW,225,4.0,4.0,95,0.00,,,0.06,meteohub,2013-04-29 05:48:00,
2013-04-29 00:53:00,55.8,54.3,29.97,West,270,3.0,5.0,95,0.00,,,0.06,meteohub,2013-04-29 05:53:00,
2013-04-29 00:59:00,55.9,54.5,29.97,West,270,2.0,5.0,95,0.00,,,0.06,meteohub,2013-04-29 05:59:00,
2013-04-29 01:04:00,55.9,54.5,29.97,West,270,0.0,4.0,95,0.00,,,0.06,meteohub,2013-04-29 06:04:00,
2013-04-29 01:09:00,55.8,54.1,29.97,West,270,0.0,4.0,94,0.00,,,0.06,meteohub,2013-04-29 06:09:00,
2013-04-29 01:14:00,55.8,53.8,29.97,East,90,0.0,4.0,93,0.00,,,0.06,meteohub,2013-04-29 06:14:00,
2013-04-29 01:19:00,55.8,53.8,29.97,NE,45,0.0,1.0,93,0.00,,,0.06,meteohub,2013-04-29 06:19:00,
2013-04-29 01:24:00,55.6,53.6,29.97,East,90,1.0,1.0,93,0.00,,,0.06,meteohub,2013-04-29 06:24:00,
2013-04-29 01:29:00,55.6,53.6,29.98,SE,135,1.0,1.0,93,0.00,,,0.06,meteohub,2013-04-29 06:29:00,
2013-04-29 01:34:00,55.6,53.6,29.98,SE,135,1.0,2.0,93,0.00,,,0.06,meteohub,2013-04-29 06:34:00,
2013-04-29 01:39:00,55.4,53.4,29.98,SW,225,2.0,2.0,93,0.00,,,0.06,meteohub,2013-04-29 06:39:00,
2013-04-29 01:44:00,55.4,53.4,29.98,SW,225,0.0,2.0,93,0.00,,,0.06,meteohub,2013-04-29 06:44:00,
2013-04-29 01:49:00,55.2,53.2,29.99,South,180,2.0,2.0,93,0.00,,,0.06,meteohub,2013-04-29 06:49:00,
2013-04-29 01:54:00,55.2,53.2,29.99,South,180,1.0,2.0,93,0.00,,,0.06,meteohub,2013-04-29 06:54:00,
2013-04-29 01:59:00,55.0,53.1,29.99,South,180,2.0,2.0,93,0.00,,,0.06,meteohub,2013-04-29 06:59:00,
2013-04-29 02:04:00,55.0,53.1,29.99,South,180,0.0,2.0,93,0.00,,,0.06,meteohub,2013-04-29 07:04:00,
2013-04-29 02:09:00,54.7,52.7,29.99,South,180,1.0,2.0,93,0.00,,,0.06,meteohub,2013-04-29 07:09:00,
2013-04-29 02:14:00,54.5,52.5,29.99,South,180,0.0,2.0,93,0.00,,,0.06,meteohub,2013-04-29 07:14:00,
2013-04-29 02:19:00,54.5,52.5,29.99,SE,135,1.0,2.0,93,0.00,,,0.06,meteohub,2013-04-29 07:19:00,
2013-04-29 02:24:00,54.3,52.3,29.99,SW,225,1.0,2.0,93,0.00,,,0.06,meteohub,2013-04-29 07:24:00,
2013-04-29 02:29:00,54.3,52.0,29.99,West,270,1.0,3.0,92,0.00,,,0.06,meteohub,2013-04-29 07:29:00,
2013-04-29 02:34:00,54.1,51.8,29.99,SW,225,2.0,3.0,92,0.00,,,0.06,meteohub,2013-04-29 07:34:00,
2013-04-29 02:39:00,54.1,51.6,29.99,West,270,2.0,3.0,91,0.00,,,0.06,meteohub,2013-04-29 07:39:00,
2013-04-29 02:44:00,54.1,51.3,29.99,West,270,1.0,2.0,90,0.00,,,0.06,meteohub,2013-04-29 07:44:00,
2013-04-29 02:49:00,54.0,51.1,29.99,West,270,2.0,2.0,90,0.01,,,0.07,meteohub,2013-04-29 07:49:00,
2013-04-29 02:54:00,53.8,50.5,29.99,West,270,1.0,2.0,89,0.01,,,0.07,meteohub,2013-04-29 07:54:00,
2013-04-29 03:00:00,53.6,50.4,29.99,West,270,2.0,2.0,89,0.01,,,0.07,meteohub,2013-04-29 08:00:00,
2013-04-29 03:05:00,53.6,50.4,29.99,West,270,2.0,2.0,89,0.01,,,0.07,meteohub,2013-04-29 08:05:00,
2013-04-29 03:10:00,53.4,50.5,29.99,West,270,2.0,2.0,90,0.01,,,0.07,meteohub,2013-04-29 08:10:00,
2013-04-29 03:15:00,53.2,50.0,29.99,NW,315,1.0,2.0,89,0.01,,,0.07,meteohub,2013-04-29 08:15:00,
2013-04-29 03:20:00,53.2,50.0,29.99,West,270,3.0,3.0,89,0.01,,,0.07,meteohub,2013-04-29 08:20:00,
2013-04-29 03:25:00,53.1,49.8,29.99,SW,225,1.0,2.0,89,0.01,,,0.07,meteohub,2013-04-29 08:25:00,
2013-04-29 03:30:00,53.1,49.8,30.00,NW,315,2.0,3.0,89,0.01,,,0.07,meteohub,2013-04-29 08:30:00,
2013-04-29 03:35:00,53.1,49.6,30.00,West,270,2.0,3.0,88,0.01,,,0.07,meteohub,2013-04-29 08:35:00,
2013-04-29 03:40:00,52.9,49.1,30.00,SW,225,2.0,3.0,87,0.01,,,0.07,meteohub,2013-04-29 08:40:00,
2013-04-29 03:45:00,52.9,49.1,30.00,NW,315,2.0,2.0,87,0.00,,,0.07,meteohub,2013-04-29 08:45:00,
2013-04-29 03:50:00,52.9,49.1,30.00,West,270,2.0,2.0,87,0.00,,,0.07,meteohub,2013-04-29 08:50:00,
2013-04-29 03:55:00,52.7,48.6,30.01,West,270,3.0,3.0,86,0.00,,,0.07,meteohub,2013-04-29 08:55:00,
2013-04-29 04:00:00,52.9,48.6,30.01,NW,315,2.0,3.0,85,0.00,,,0.07,meteohub,2013-04-29 09:00:00,
2013-04-29 04:05:00,52.9,48.6,30.00,West,270,2.0,4.0,85,0.00,,,0.07,meteohub,2013-04-29 09:05:00,
2013-04-29 04:10:00,52.9,48.2,30.01,West,270,2.0,4.0,84,0.00,,,0.07,meteohub,2013-04-29 09:10:00,
2013-04-29 04:15:00,52.7,48.0,30.01,West,270,2.0,4.0,84,0.00,,,0.07,meteohub,2013-04-29 09:15:00,
2013-04-29 04:20:00,52.7,47.7,30.01,West,270,3.0,4.0,83,0.00,,,0.07,meteohub,2013-04-29 09:20:00,
2013-04-29 04:25:00,52.7,47.7,30.01,West,270,2.0,4.0,83,0.00,,,0.07,meteohub,2013-04-29 09:25:00,
2013-04-29 04:30:00,52.5,47.5,30.01,West,270,3.0,4.0,83,0.00,,,0.07,meteohub,2013-04-29 09:30:00,
2013-04-29 04:35:00,52.5,47.1,30.01,NW,315,2.0,4.0,82,0.00,,,0.07,meteohub,2013-04-29 09:35:00,
2013-04-29 04:40:00,52.5,46.9,30.02,NW,315,5.0,5.0,81,0.00,,,0.07,meteohub,2013-04-29 09:40:00,
2013-04-29 04:45:00,52.5,46.2,30.02,NW,315,4.0,5.0,79,0.00,,,0.07,meteohub,2013-04-29 09:45:00,
2013-04-29 04:50:00,52.7,45.7,30.01,NW,315,5.0,5.0,77,0.00,,,0.07,meteohub,2013-04-29 09:50:00,
2013-04-29 04:55:00,52.7,45.3,30.02,NW,315,5.0,6.0,76,0.00,,,0.07,meteohub,2013-04-29 09:55:00,
2013-04-29 05:01:00,52.7,45.0,30.02,NW,315,4.0,6.0,75,0.00,,,0.07,meteohub,2013-04-29 10:01:00,
2013-04-29 05:06:00,52.7,45.0,30.02,NW,315,4.0,8.0,75,0.00,,,0.07,meteohub,2013-04-29 10:06:00,
2013-04-29 05:11:00,52.5,44.4,30.01,West,270,2.0,8.0,74,0.00,,,0.07,meteohub,2013-04-29 10:11:00,
2013-04-29 05:16:00,52.2,44.1,30.01,South,180,4.0,8.0,74,0.00,,,0.07,meteohub,2013-04-29 10:16:00,
2013-04-29 05:21:00,52.0,43.9,30.02,West,270,4.0,5.0,74,0.00,,,0.07,meteohub,2013-04-29 10:21:00,
2013-04-29 05:26:00,51.8,43.0,30.02,West,270,3.0,6.0,72,0.00,,,0.07,meteohub,2013-04-29 10:26:00,
2013-04-29 05:31:00,51.8,42.6,30.03,West,270,5.0,8.0,71,0.00,,,0.07,meteohub,2013-04-29 10:31:00,
2013-04-29 05:36:00,51.4,42.4,30.02,NW,315,5.0,8.0,71,0.00,,,0.07,meteohub,2013-04-29 10:36:00,
2013-04-29 05:41:00,51.4,41.9,30.02,West,270,5.0,8.0,70,0.00,,,0.07,meteohub,2013-04-29 10:41:00,
2013-04-29 05:46:00,51.3,40.6,30.02,West,270,6.0,8.0,67,0.00,,,0.07,meteohub,2013-04-29 10:46:00,
2013-04-29 05:51:00,51.3,40.3,30.03,West,270,3.0,8.0,66,0.00,,,0.07,meteohub,2013-04-29 10:51:00,
2013-04-29 05:56:00,51.1,40.5,30.02,NW,315,2.0,8.0,67,0.00,,,0.07,meteohub,2013-04-29 10:56:00,
2013-04-29 06:01:00,50.7,40.5,30.02,NW,315,4.0,6.0,68,0.00,,,0.07,meteohub,2013-04-29 11:01:00,
2013-04-29 06:06:00,50.5,39.9,30.02,SW,225,2.0,8.0,67,0.00,,,0.07,meteohub,2013-04-29 11:06:00,
2013-04-29 06:11:00,50.5,39.6,30.02,West,270,4.0,8.0,66,0.00,,,0.07,meteohub,2013-04-29 11:11:00,
2013-04-29 06:16:00,50.5,39.2,30.02,West,270,6.0,8.0,65,0.00,,,0.07,meteohub,2013-04-29 11:16:00,
2013-04-29 06:21:00,50.4,38.3,30.02,NW,315,7.0,8.0,63,0.00,,,0.07,meteohub,2013-04-29 11:21:00,
2013-04-29 06:26:00,50.4,38.3,30.02,West,270,4.0,8.0,63,0.00,,,0.07,meteohub,2013-04-29 11:26:00,
2013-04-29 06:31:00,50.2,38.1,30.02,NW,315,3.0,7.0,63,0.00,,,0.07,meteohub,2013-04-29 11:31:00,
2013-04-29 06:36:00,50.2,38.5,30.03,West,270,5.0,7.0,64,0.00,,,0.07,meteohub,2013-04-29 11:36:00,
2013-04-29 06:41:00,50.2,38.1,30.02,West,270,7.0,7.0,63,0.00,,,0.07,meteohub,2013-04-29 11:41:00,
2013-04-29 06:46:00,50.2,38.1,30.03,NW,315,5.0,8.0,63,0.00,,,0.07,meteohub,2013-04-29 11:46:00,
2013-04-29 06:51:00,50.2,38.1,30.02,NW,315,4.0,8.0,63,0.00,,,0.07,meteohub,2013-04-29 11:51:00,
2013-04-29 06:56:00,50.4,38.3,30.02,NW,315,3.0,8.0,63,0.00,,,0.07,meteohub,2013-04-29 11:56:00,
2013-04-29 07:01:00,50.4,38.3,30.01,West,270,5.0,7.0,63,0.00,,,0.07,meteohub,2013-04-29 12:01:00,
2013-04-29 07:06:00,50.4,38.3,30.02,West,270,5.0,8.0,63,0.00,,,0.07,meteohub,2013-04-29 12:06:00,
2013-04-29 07:11:00,50.5,37.6,30.01,SW,225,4.0,9.0,61,0.00,,,0.07,meteohub,2013-04-29 12:11:00,
2013-04-29 07:16:00,50.7,37.4,30.01,NW,315,8.0,9.0,60,0.00,,,0.07,meteohub,2013-04-29 12:16:00,
2013-04-29 07:21:00,50.9,37.6,30.01,West,270,10.0,11.0,60,0.00,,,0.07,meteohub,2013-04-29 12:21:00,
2013-04-29 07:27:00,50.9,37.0,30.01,North,0,4.0,11.0,59,0.00,,,0.07,meteohub,2013-04-29 12:27:00,
2013-04-29 07:32:00,50.7,36.5,30.02,NW,315,4.0,10.0,58,0.00,,,0.07,meteohub,2013-04-29 12:32:00,
2013-04-29 07:37:00,50.7,36.5,30.02,West,270,8.0,10.0,58,0.00,,,0.07,meteohub,2013-04-29 12:37:00,
2013-04-29 07:42:00,50.7,36.0,30.02,NW,315,8.0,9.0,57,0.00,,,0.07,meteohub,2013-04-29 12:42:00,
2013-04-29 07:47:00,51.1,36.3,30.02,NW,315,11.0,11.0,57,0.00,,,0.07,meteohub,2013-04-29 12:47:00,
2013-04-29 07:52:00,51.3,35.6,30.02,North,0,4.0,11.0,55,0.00,,,0.07,meteohub,2013-04-29 12:52:00,
2013-04-29 07:57:00,51.4,35.4,30.02,NW,315,7.0,11.0,54,0.00,,,0.07,meteohub,2013-04-29 12:57:00,
2013-04-29 08:02:00,51.4,35.4,30.02,West,270,6.0,11.0,54,0.00,,,0.07,meteohub,2013-04-29 13:02:00,
2013-04-29 08:07:00,52.0,35.8,30.02,NW,315,5.0,10.0,54,0.00,,,0.07,meteohub,2013-04-29 13:07:00,
2013-04-29 08:12:00,52.2,35.1,30.02,NW,315,3.0,10.0,52,0.00,,,0.07,meteohub,2013-04-29 13:12:00,
2013-04-29 08:17:00,52.7,35.1,30.02,NW,315,2.0,8.0,51,0.00,,,0.07,meteohub,2013-04-29 13:17:00,
2013-04-29 08:22:00,52.5,34.3,30.02,North,0,5.0,8.0,50,0.00,,,0.07,meteohub,2013-04-29 13:22:00,
2013-04-29 08:27:00,52.9,35.2,30.02,West,270,8.0,8.0,51,0.00,,,0.07,meteohub,2013-04-29 13:27:00,
2013-04-29 08:32:00,52.7,34.2,30.02,NW,315,7.0,8.0,49,0.00,,,0.07,meteohub,2013-04-29 13:32:00,
2013-04-29 08:37:00,52.9,34.7,30.02,NW,315,6.0,8.0,50,0.00,,,0.07,meteohub,2013-04-29 13:37:00,
2013-04-29 08:42:00,53.1,34.3,30.02,NW,315,8.0,8.0,49,0.00,,,0.07,meteohub,2013-04-29 13:42:00,
2013-04-29 08:47:00,53.4,34.7,30.02,West,270,4.0,8.0,49,0.00,,,0.07,meteohub,2013-04-29 13:47:00,
2013-04-29 08:52:00,53.6,34.3,30.02,West,270,4.0,8.0,48,0.00,,,0.07,meteohub,2013-04-29 13:52:00,
2013-04-29 08:57:00,53.8,34.5,30.01,North,0,4.0,8.0,48,0.00,,,0.07,meteohub,2013-04-29 13:57:00,
2013-04-29 09:02:00,54.0,34.2,30.02,NW,315,5.0,9.0,47,0.00,,,0.07,meteohub,2013-04-29 14:02:00,
2013-04-29 09:07:00,54.0,34.2,30.01,NW,315,5.0,9.0,47,0.00,,,0.07,meteohub,2013-04-29 14:07:00,
2013-04-29 09:12:00,54.7,34.3,30.01,NE,45,4.0,9.0,46,0.00,,,0.07,meteohub,2013-04-29 14:12:00,
2013-04-29 09:17:00,54.5,33.6,30.01,West,270,5.0,7.0,45,0.00,,,0.07,meteohub,2013-04-29 14:17:00,
2013-04-29 09:23:00,54.7,34.9,30.00,West,270,4.0,9.0,47,0.00,,,0.07,meteohub,2013-04-29 14:23:00,
2013-04-29 09:28:00,55.0,34.7,30.00,West,270,4.0,9.0,46,0.00,,,0.07,meteohub,2013-04-29 14:28:00,
2013-04-29 09:33:00,55.4,34.3,30.01,SW,225,4.0,8.0,45,0.00,,,0.07,meteohub,2013-04-29 14:33:00,
2013-04-29 09:38:00,55.4,34.3,30.00,West,270,6.0,8.0,45,0.00,,,0.07,meteohub,2013-04-29 14:38:00,
2013-04-29 09:43:00,55.9,35.4,30.00,NW,315,5.0,8.0,46,0.00,,,0.07,meteohub,2013-04-29 14:43:00,
2013-04-29 09:48:00,56.7,35.6,29.99,SW,225,3.0,8.0,45,0.00,,,0.07,meteohub,2013-04-29 14:48:00,
2013-04-29 09:53:00,57.2,34.9,29.99,North,0,2.0,8.0,43,0.00,,,0.07,meteohub,2013-04-29 14:53:00,
2013-04-29 09:58:00,57.7,34.9,29.99,North,0,3.0,5.0,42,0.00,,,0.07,meteohub,2013-04-29 14:58:00,
2013-04-29 10:03:00,57.9,34.3,30.00,NW,315,3.0,5.0,41,0.00,,,0.07,meteohub,2013-04-29 15:03:00,
2013-04-29 10:08:00,57.7,34.2,29.99,SW,225,4.0,5.0,41,0.00,,,0.07,meteohub,2013-04-29 15:08:00,
2013-04-29 10:13:00,57.7,34.2,29.99,NW,315,4.0,5.0,41,0.00,,,0.07,meteohub,2013-04-29 15:13:00,
2013-04-29 10:18:00,58.5,34.9,29.99,NW,315,2.0,4.0,41,0.00,,,0.07,meteohub,2013-04-29 15:18:00,
2013-04-29 10:23:00,59.4,35.1,29.99,NNE,23,4.0,4.0,40,0.00,,,0.07,meteohub,2013-04-29 15:23:00,
2013-04-29 10:28:00,59.7,35.4,29.99,North,0,2.0,4.0,40,0.00,,,0.07,meteohub,2013-04-29 15:28:00,
2013-04-29 10:33:00,60.1,35.6,29.98,North,0,3.0,4.0,40,0.00,,,0.07,meteohub,2013-04-29 15:33:00,
2013-04-29 10:38:00,60.8,35.6,29.98,North,0,3.0,4.0,39,0.00,,,0.07,meteohub,2013-04-29 15:38:00,
2013-04-29 10:43:00,61.2,36.7,29.98,NE,45,4.0,4.0,40,0.00,,,0.07,meteohub,2013-04-29 15:43:00,
2013-04-29 10:48:00,61.5,36.3,29.98,SE,135,2.0,5.0,39,0.00,,,0.07,meteohub,2013-04-29 15:48:00,
2013-04-29 10:53:00,62.6,37.2,29.98,North,0,4.0,5.0,39,0.00,,,0.07,meteohub,2013-04-29 15:53:00,
2013-04-29 10:58:00,63.1,37.0,29.98,SE,135,4.0,5.0,38,0.00,,,0.07,meteohub,2013-04-29 15:58:00,
2013-04-29 11:03:00,63.3,37.2,29.98,North,0,2.0,6.0,38,0.00,,,0.07,meteohub,2013-04-29 16:03:00,
2013-04-29 11:08:00,63.9,37.8,29.97,North,0,3.0,6.0,38,0.00,,,0.07,meteohub,2013-04-29 16:08:00,
2013-04-29 11:13:00,64.2,38.1,29.97,WNW,293,4.0,5.0,38,0.00,,,0.07,meteohub,2013-04-29 16:13:00,
2013-04-29 11:18:00,64.2,38.1,29.97,NE,45,4.0,4.0,38,0.00,,,0.07,meteohub,2013-04-29 16:18:00,
2013-04-29 11:23:00,64.4,38.3,29.96,ENE,68,8.0,8.0,38,0.00,,,0.07,meteohub,2013-04-29 16:23:00,
2013-04-29 11:28:00,64.8,38.5,29.96,NE,45,4.0,8.0,38,0.00,,,0.07,meteohub,2013-04-29 16:28:00,
2013-04-29 11:33:00,65.3,39.0,29.96,SE,135,4.0,8.0,38,0.00,,,0.07,meteohub,2013-04-29 16:33:00,
2013-04-29 11:38:00,65.7,39.4,29.96,SE,135,6.0,8.0,38,0.00,,,0.07,meteohub,2013-04-29 16:38:00,
2013-04-29 11:44:00,66.2,39.9,29.96,North,0,5.0,7.0,38,0.00,,,0.07,meteohub,2013-04-29 16:44:00,
2013-04-29 11:49:00,66.4,39.4,29.96,South,180,4.0,7.0,37,0.00,,,0.07,meteohub,2013-04-29 16:49:00,
2013-04-29 11:54:00,66.2,39.9,29.96,South,180,4.0,6.0,38,0.00,,,0.07,meteohub,2013-04-29 16:54:00,
2013-04-29 11:59:00,66.4,39.9,29.96,North,0,3.0,6.0,38,0.00,,,0.07,meteohub,2013-04-29 16:59:00,
2013-04-29 12:04:00,66.4,39.9,29.96,NE,45,8.0,8.0,38,0.00,,,0.07,meteohub,2013-04-29 17:04:00,
2013-04-29 12:09:00,66.6,40.1,29.96,ESE,113,5.0,7.0,38,0.00,,,0.07,meteohub,2013-04-29 17:09:00,
2013-04-29 12:14:00,67.5,41.7,29.96,East,90,7.0,8.0,39,0.00,,,0.07,meteohub,2013-04-29 17:14:00,
2013-04-29 12:19:00,68.0,41.4,29.95,East,90,5.0,8.0,38,0.00,,,0.07,meteohub,2013-04-29 17:19:00,
2013-04-29 12:24:00,68.5,41.2,29.95,NNE,23,4.0,7.0,37,0.00,,,0.07,meteohub,2013-04-29 17:24:00,
2013-04-29 12:29:00,68.9,40.8,29.95,North,0,4.0,7.0,36,0.00,,,0.07,meteohub,2013-04-29 17:29:00,
2013-04-29 12:34:00,68.4,40.3,29.95,NE,45,4.0,6.0,36,0.00,,,0.07,meteohub,2013-04-29 17:34:00,
2013-04-29 12:39:00,68.4,41.7,29.94,NE,45,4.0,7.0,38,0.00,,,0.07,meteohub,2013-04-29 17:39:00,
2013-04-29 12:44:00,68.4,41.7,29.94,NE,45,2.0,8.0,38,0.00,,,0.07,meteohub,2013-04-29 17:44:00,
2013-04-29 12:49:00,68.9,43.5,29.94,NE,45,5.0,8.0,40,0.00,,,0.07,meteohub,2013-04-29 17:49:00,
2013-04-29 12:54:00,69.3,42.6,29.94,NE,45,3.0,8.0,38,0.00,,,0.07,meteohub,2013-04-29 17:54:00,
2013-04-29 12:59:00,69.8,42.4,29.93,ESE,113,3.0,8.0,37,0.00,,,0.07,meteohub,2013-04-29 17:59:00,
2013-04-29 13:04:00,70.0,42.4,29.93,East,90,6.0,8.0,37,0.00,,,0.07,meteohub,2013-04-29 18:04:00,
2013-04-29 13:09:00,70.3,42.1,29.93,NE,45,6.0,6.0,36,0.00,,,0.07,meteohub,2013-04-29 18:09:00,
2013-04-29 13:14:00,71.1,42.8,29.93,NE,45,7.0,7.0,36,0.00,,,0.07,meteohub,2013-04-29 18:14:00,
2013-04-29 13:19:00,71.2,42.3,29.92,ENE,68,6.0,7.0,35,0.00,,,0.07,meteohub,2013-04-29 18:19:00,
2013-04-29 13:24:00,71.2,40.6,29.92,NE,45,4.0,8.0,33,0.00,,,0.07,meteohub,2013-04-29 18:24:00,
2013-04-29 13:29:00,71.6,40.1,29.92,NW,315,4.0,8.0,32,0.00,,,0.07,meteohub,2013-04-29 18:29:00,
2013-04-29 13:34:00,72.0,39.7,29.91,NE,45,8.0,8.0,31,0.00,,,0.07,meteohub,2013-04-29 18:34:00,
2013-04-29 13:39:00,71.2,39.0,29.91,NE,45,3.0,9.0,31,0.00,,,0.07,meteohub,2013-04-29 18:39:00,
2013-04-29 13:44:00,71.4,40.8,29.91,NE,45,6.0,9.0,33,0.00,,,0.07,meteohub,2013-04-29 18:44:00,
2013-04-29 13:49:00,71.2,40.6,29.91,South,180,4.0,9.0,33,0.00,,,0.07,meteohub,2013-04-29 18:49:00,
2013-04-29 13:54:00,71.8,40.3,29.90,North,0,8.0,9.0,32,0.00,,,0.07,meteohub,2013-04-29 18:54:00,
2013-04-29 13:59:00,71.6,40.1,29.91,North,0,4.0,9.0,32,0.00,,,0.07,meteohub,2013-04-29 18:59:00,
2013-04-29 14:05:00,72.0,40.5,29.91,ESE,113,11.0,11.0,32,0.00,,,0.07,meteohub,2013-04-29 19:05:00,
2013-04-29 14:10:00,72.1,39.0,29.91,North,0,4.0,11.0,30,0.00,,,0.07,meteohub,2013-04-29 19:10:00,
2013-04-29 14:15:00,72.5,39.4,29.90,NW,315,2.0,11.0,30,0.00,,,0.07,meteohub,2013-04-29 19:15:00,
2013-04-29 14:20:00,73.0,39.7,29.90,ENE,68,6.0,11.0,30,0.00,,,0.07,meteohub,2013-04-29 19:20:00,
2013-04-29 14:25:00,72.7,39.4,29.90,East,90,4.0,8.0,30,0.00,,,0.07,meteohub,2013-04-29 19:25:00,
2013-04-29 14:30:00,72.5,38.5,29.89,West,270,2.0,11.0,29,0.00,,,0.07,meteohub,2013-04-29 19:30:00,
2013-04-29 14:35:00,72.7,39.4,29.89,East,90,7.0,11.0,30,0.00,,,0.07,meteohub,2013-04-29 19:35:00,
2013-04-29 14:40:00,72.3,41.5,29.89,East,90,8.0,12.0,33,0.00,,,0.07,meteohub,2013-04-29 19:40:00,
2013-04-29 14:45:00,72.7,41.9,29.88,NE,45,3.0,12.0,33,0.00,,,0.07,meteohub,2013-04-29 19:45:00,
2013-04-29 14:50:00,72.7,42.6,29.88,NE,45,11.0,12.0,34,0.00,,,0.07,meteohub,2013-04-29 19:50:00,
2013-04-29 14:55:00,72.7,41.9,29.88,North,0,4.0,12.0,33,0.00,,,0.07,meteohub,2013-04-29 19:55:00,
2013-04-29 15:00:00,72.9,42.8,29.88,North,0,9.0,12.0,34,0.00,,,0.07,meteohub,2013-04-29 20:00:00,
2013-04-29 15:05:00,72.9,42.8,29.88,North,0,9.0,12.0,34,0.00,,,0.07,meteohub,2013-04-29 20:05:00,
2013-04-29 15:10:00,72.5,41.7,29.87,North,0,6.0,11.0,33,0.00,,,0.07,meteohub,2013-04-29 20:10:00,
2013-04-29 15:15:00,72.7,40.3,29.87,NE,45,8.0,12.0,31,0.00,,,0.07,meteohub,2013-04-29 20:15:00,
2013-04-29 15:20:00,72.7,42.6,29.88,NE,45,13.0,14.0,34,0.00,,,0.07,meteohub,2013-04-29 20:20:00,
2013-04-29 15:25:00,72.7,45.7,29.87,North,0,5.0,14.0,38,0.00,,,0.07,meteohub,2013-04-29 20:25:00,
2013-04-29 15:30:00,72.7,45.7,29.87,North,0,6.0,13.0,38,0.00,,,0.07,meteohub,2013-04-29 20:30:00,
2013-04-29 15:35:00,73.4,46.2,29.86,East,90,11.0,13.0,38,0.00,,,0.07,meteohub,2013-04-29 20:35:00,
2013-04-29 15:40:00,73.2,46.0,29.86,NE,45,8.0,12.0,38,0.00,,,0.07,meteohub,2013-04-29 20:40:00,
2013-04-29 15:45:00,73.8,46.6,29.85,ENE,68,8.0,12.0,38,0.00,,,0.07,meteohub,2013-04-29 20:45:00,
2013-04-29 15:50:00,73.9,47.5,29.85,NE,45,5.0,11.0,39,0.00,,,0.07,meteohub,2013-04-29 20:50:00,
2013-04-29 15:55:00,73.9,46.0,29.85,NE,45,13.0,13.0,37,0.00,,,0.07,meteohub,2013-04-29 20:55:00,
2013-04-29 16:00:00,73.8,46.6,29.85,ENE,68,15.0,15.0,38,0.00,,,0.07,meteohub,2013-04-29 21:00:00,
2013-04-29 16:05:00,73.6,47.1,29.84,East,90,5.0,15.0,39,0.00,,,0.07,meteohub,2013-04-29 21:05:00,
2013-04-29 16:10:00,74.3,48.4,29.85,East,90,11.0,15.0,40,0.00,,,0.07,meteohub,2013-04-29 21:10:00,
2013-04-29 16:15:00,74.1,47.7,29.85,North,0,10.0,15.0,39,0.00,,,0.07,meteohub,2013-04-29 21:15:00,
2013-04-29 16:20:00,73.6,47.8,29.84,North,0,3.0,11.0,40,0.00,,,0.07,meteohub,2013-04-29 21:20:00,
2013-04-29 16:26:00,73.6,47.8,29.85,NE,45,12.0,12.0,40,0.00,,,0.07,meteohub,2013-04-29 21:26:00,
2013-04-29 16:31:00,73.8,48.6,29.85,NNW,338,10.0,12.0,41,0.00,,,0.07,meteohub,2013-04-29 21:31:00,
2013-04-29 16:36:00,73.4,46.2,29.84,East,90,6.0,16.0,38,0.00,,,0.07,meteohub,2013-04-29 21:36:00,
2013-04-29 16:41:00,74.3,48.4,29.85,NE,45,14.0,16.0,40,0.00,,,0.07,meteohub,2013-04-29 21:41:00,
2013-04-29 16:46:00,73.9,48.7,29.84,South,180,11.0,16.0,41,0.00,,,0.07,meteohub,2013-04-29 21:46:00,
2013-04-29 16:51:00,73.8,48.0,29.84,NE,45,10.0,14.0,40,0.00,,,0.07,meteohub,2013-04-29 21:51:00,
2013-04-29 16:56:00,73.9,49.5,29.83,East,90,8.0,14.0,42,0.00,,,0.07,meteohub,2013-04-29 21:56:00,
2013-04-29 17:01:00,74.1,48.2,29.83,NE,45,12.0,13.0,40,0.00,,,0.07,meteohub,2013-04-29 22:01:00,
2013-04-29 17:06:00,74.1,48.2,29.84,NE,45,12.0,13.0,40,0.00,,,0.07,meteohub,2013-04-29 22:06:00,
2013-04-29 17:11:00,74.1,45.5,29.83,ENE,68,10.0,13.0,36,0.00,,,0.07,meteohub,2013-04-29 22:11:00,
2013-04-29 17:16:00,73.2,46.0,29.83,NE,45,9.0,12.0,38,0.00,,,0.07,meteohub,2013-04-29 22:16:00,
2013-04-29 17:21:00,73.2,46.8,29.83,North,0,8.0,12.0,39,0.00,,,0.07,meteohub,2013-04-29 22:21:00,
2013-04-29 17:26:00,73.4,48.2,29.82,NE,45,7.0,11.0,41,0.00,,,0.07,meteohub,2013-04-29 22:26:00,
2013-04-29 17:31:00,73.6,48.4,29.82,SE,135,5.0,9.0,41,0.00,,,0.07,meteohub,2013-04-29 22:31:00,
2013-04-29 17:36:00,73.8,47.3,29.83,ENE,68,10.0,11.0,39,0.00,,,0.07,meteohub,2013-04-29 22:36:00,
2013-04-29 17:41:00,73.2,46.0,29.82,SE,135,6.0,12.0,38,0.00,,,0.07,meteohub,2013-04-29 22:41:00,
2013-04-29 17:46:00,73.4,46.9,29.83,SW,225,8.0,12.0,39,0.00,,,0.07,meteohub,2013-04-29 22:46:00,
2013-04-29 17:51:00,74.1,48.2,29.83,East,90,11.0,11.0,40,0.00,,,0.07,meteohub,2013-04-29 22:51:00,
2013-04-29 17:56:00,74.3,49.1,29.82,NE,45,4.0,11.0,41,0.00,,,0.07,meteohub,2013-04-29 22:56:00,
2013-04-29 18:01:00,74.7,50.0,29.81,SSE,158,9.0,11.0,42,0.00,,,0.07,meteohub,2013-04-29 23:01:00,
2013-04-29 18:06:00,74.5,49.3,29.82,NE,45,16.0,16.0,41,0.00,,,0.07,meteohub,2013-04-29 23:06:00,
2013-04-29 18:11:00,74.1,49.6,29.81,East,90,8.0,17.0,42,0.00,,,0.07,meteohub,2013-04-29 23:11:00,
2013-04-29 18:16:00,74.3,49.6,29.81,SE,135,9.0,17.0,42,0.00,,,0.07,meteohub,2013-04-29 23:16:00,
2013-04-29 18:21:00,74.1,49.6,29.81,SE,135,7.0,17.0,42,0.00,,,0.07,meteohub,2013-04-29 23:21:00,
2013-04-29 18:26:00,74.1,50.2,29.80,ENE,68,4.0,9.0,43,0.00,,,0.07,meteohub,2013-04-29 23:26:00,
2013-04-29 18:31:00,73.6,49.6,29.80,East,90,8.0,9.0,43,0.00,,,0.07,meteohub,2013-04-29 23:31:00,
2013-04-29 18:36:00,73.2,49.5,29.80,East,90,5.0,11.0,43,0.00,,,0.07,meteohub,2013-04-29 23:36:00,
2013-04-29 18:42:00,73.4,50.2,29.80,SE,135,11.0,11.0,44,0.00,,,0.07,meteohub,2013-04-29 23:42:00,
2013-04-29 18:47:00,73.2,50.0,29.81,ENE,68,8.0,11.0,44,0.00,,,0.07,meteohub,2013-04-29 23:47:00,
2013-04-29 18:52:00,73.0,50.4,29.80,SE,135,8.0,14.0,45,0.00,,,0.07,meteohub,2013-04-29 23:52:00,
2013-04-29 18:57:00,73.0,51.1,29.80,East,90,8.0,14.0,46,0.00,,,0.07,meteohub,2013-04-29 23:57:00,
2013-04-29 19:02:00,73.0,51.1,29.80,East,90,7.0,11.0,46,0.00,,,0.07,meteohub,2013-04-30 00:02:00,
2013-04-29 19:07:00,73.0,51.1,29.80,East,90,7.0,9.0,46,0.00,,,0.00,meteohub,2013-04-30 00:07:00,
2013-04-29 19:12:00,73.0,51.6,29.79,SE,135,9.0,10.0,47,0.00,,,0.00,meteohub,2013-04-30 00:12:00,
2013-04-29 19:17:00,73.0,51.6,29.80,SE,135,6.0,11.0,47,0.00,,,0.00,meteohub,2013-04-30 00:17:00,
2013-04-29 19:22:00,72.9,51.4,29.80,East,90,5.0,11.0,47,0.00,,,0.00,meteohub,2013-04-30 00:22:00,
2013-04-29 19:27:00,72.9,52.0,29.80,SE,135,8.0,11.0,48,0.00,,,0.00,meteohub,2013-04-30 00:27:00,
2013-04-29 19:32:00,72.7,51.8,29.80,East,90,4.0,11.0,48,0.00,,,0.00,meteohub,2013-04-30 00:32:00,
2013-04-29 19:37:00,72.5,51.6,29.79,East,90,4.0,11.0,48,0.00,,,0.00,meteohub,2013-04-30 00:37:00,
2013-04-29 19:42:00,72.3,51.4,29.79,SE,135,6.0,8.0,48,0.00,,,0.00,meteohub,2013-04-30 00:42:00,
2013-04-29 19:47:00,72.1,51.4,29.78,ENE,68,4.0,6.0,48,0.00,,,0.00,meteohub,2013-04-30 00:47:00,
2013-04-29 19:52:00,72.1,52.0,29.79,East,90,1.0,6.0,49,0.00,,,0.00,meteohub,2013-04-30 00:52:00,
2013-04-29 19:57:00,71.8,51.6,29.79,East,90,5.0,6.0,49,0.00,,,0.00,meteohub,2013-04-30 00:57:00,
2013-04-29 20:02:00,71.8,51.6,29.79,East,90,2.0,7.0,49,0.00,,,0.00,meteohub,2013-04-30 01:02:00,
2013-04-29 20:07:00,71.8,51.6,29.80,East,90,3.0,7.0,49,0.00,,,0.00,meteohub,2013-04-30 01:07:00,
2013-04-29 20:12:00,71.6,51.4,29.79,NE,45,2.0,5.0,49,0.00,,,0.00,meteohub,2013-04-30 01:12:00,
2013-04-29 20:17:00,71.6,51.4,29.79,East,90,2.0,5.0,49,0.00,,,0.00,meteohub,2013-04-30 01:17:00,
2013-04-29 20:22:00,71.4,52.3,29.79,East,90,4.0,4.0,51,0.00,,,0.00,meteohub,2013-04-30 01:22:00,
2013-04-29 20:27:00,71.2,52.7,29.79,NE,45,4.0,7.0,52,0.00,,,0.00,meteohub,2013-04-30 01:27:00,
2013-04-29 20:32:00,71.1,53.6,29.79,East,90,3.0,8.0,54,0.00,,,0.00,meteohub,2013-04-30 01:32:00,
2013-04-29 20:37:00,71.1,55.0,29.79,East,90,10.0,10.0,57,0.00,,,0.00,meteohub,2013-04-30 01:37:00,
2013-04-29 20:42:00,71.1,55.6,29.79,NE,45,9.0,15.0,58,0.00,,,0.00,meteohub,2013-04-30 01:42:00,
2013-04-29 20:47:00,71.1,55.9,29.79,NE,45,3.0,15.0,59,0.00,,,0.00,meteohub,2013-04-30 01:47:00,
2013-04-29 20:52:00,70.9,56.3,29.80,SE,135,9.0,15.0,60,0.00,,,0.00,meteohub,2013-04-30 01:52:00,
2013-04-29 20:57:00,70.7,56.7,29.80,NE,45,9.0,14.0,61,0.00,,,0.00,meteohub,2013-04-30 01:57:00,
2013-04-29 21:02:00,70.5,56.8,29.80,East,90,8.0,14.0,62,0.00,,,0.00,meteohub,2013-04-30 02:02:00,
2013-04-29 21:07:00,70.5,56.8,29.80,East,90,8.0,14.0,62,0.00,,,0.00,meteohub,2013-04-30 02:07:00,
2013-04-29 21:12:00,70.0,56.8,29.80,SE,135,8.0,11.0,63,0.00,,,0.00,meteohub,2013-04-30 02:12:00,
2013-04-29 21:17:00,69.8,56.7,29.80,NE,45,13.0,13.0,63,0.00,,,0.00,meteohub,2013-04-30 02:17:00,
2013-04-29 21:22:00,69.6,57.4,29.80,East,90,8.0,14.0,65,0.00,,,0.00,meteohub,2013-04-30 02:22:00,
2013-04-29 21:27:00,69.6,57.4,29.80,East,90,8.0,14.0,65,0.00,,,0.00,meteohub,2013-04-30 02:27:00,
2013-04-29 21:32:00,69.4,57.6,29.80,East,90,5.0,14.0,66,0.00,,,0.00,meteohub,2013-04-30 02:32:00,
2013-04-29 21:37:00,69.3,57.4,29.80,NE,45,7.0,11.0,66,0.00,,,0.00,meteohub,2013-04-30 02:37:00,
2013-04-29 21:42:00,69.3,57.4,29.80,NE,45,9.0,10.0,66,0.00,,,0.00,meteohub,2013-04-30 02:42:00,
2013-04-29 21:47:00,69.1,57.2,29.79,ESE,113,9.0,10.0,66,0.00,,,0.00,meteohub,2013-04-30 02:47:00,
2013-04-29 21:52:00,68.9,57.6,29.79,NE,45,8.0,11.0,67,0.00,,,0.00,meteohub,2013-04-30 02:52:00,
2013-04-29 21:57:00,68.7,57.7,29.79,NE,45,11.0,11.0,68,0.00,,,0.00,meteohub,2013-04-30 02:57:00,
2013-04-29 22:02:00,68.5,57.6,29.79,ENE,68,7.0,11.0,68,0.00,,,0.00,meteohub,2013-04-30 03:02:00,
2013-04-29 22:07:00,68.4,57.7,29.78,NE,45,6.0,11.0,69,0.00,,,0.00,meteohub,2013-04-30 03:07:00,
2013-04-29 22:12:00,68.0,57.4,29.78,NE,45,11.0,11.0,69,0.00,,,0.00,meteohub,2013-04-30 03:12:00,
2013-04-29 22:17:00,68.0,57.9,29.78,East,90,5.0,11.0,70,0.00,,,0.00,meteohub,2013-04-30 03:17:00,
2013-04-29 22:22:00,67.8,58.1,29.78,ESE,113,13.0,13.0,71,0.00,,,0.00,meteohub,2013-04-30 03:22:00,
2013-04-29 22:27:00,67.8,58.1,29.78,NE,45,6.0,13.0,71,0.00,,,0.00,meteohub,2013-04-30 03:27:00,
2013-04-29 22:32:00,67.5,57.7,29.78,East,90,8.0,13.0,71,0.00,,,0.00,meteohub,2013-04-30 03:32:00,
2013-04-29 22:37:00,67.5,57.7,29.78,East,90,6.0,13.0,71,0.00,,,0.00,meteohub,2013-04-30 03:37:00,
2013-04-29 22:42:00,67.1,57.4,29.78,East,90,11.0,11.0,71,0.00,,,0.00,meteohub,2013-04-30 03:42:00,
2013-04-29 22:47:00,66.9,57.6,29.78,East,90,4.0,11.0,72,0.00,,,0.00,meteohub,2013-04-30 03:47:00,
2013-04-29 22:52:00,66.7,57.4,29.78,NE,45,5.0,11.0,72,0.00,,,0.00,meteohub,2013-04-30 03:52:00,
2013-04-29 22:57:00,66.6,57.2,29.78,NE,45,5.0,11.0,72,0.00,,,0.00,meteohub,2013-04-30 03:57:00,
2013-04-29 23:01:00,66.6,57.2,29.77,East,90,9.0,11.0,72,0.00,,,0.00,meteohub,2013-04-30 04:01:00,
2013-04-29 23:02:00,66.6,57.2,29.77,East,90,9.0,11.0,72,0.00,,,0.00,meteohub,2013-04-30 04:02:00,
2013-04-29 23:04:00,66.6,57.2,29.78,East,90,9.0,11.0,72,0.00,,,0.00,meteohub,2013-04-30 04:04:00,
2013-04-29 23:07:00,66.6,57.2,29.78,East,90,9.0,9.0,72,0.00,,,0.00,meteohub,2013-04-30 04:07:00,
2013-04-29 23:12:00,66.0,57.6,29.77,North,0,8.0,9.0,74,0.00,,,0.00,meteohub,2013-04-30 04:12:00,
2013-04-29 23:17:00,65.7,57.2,29.77,North,0,8.0,9.0,74,0.00,,,0.00,meteohub,2013-04-30 04:17:00,
2013-04-29 23:22:00,65.7,57.6,29.76,NE,45,11.0,11.0,75,0.00,,,0.00,meteohub,2013-04-30 04:22:00,
2013-04-29 23:27:00,65.5,57.4,29.76,NE,45,7.0,11.0,75,0.00,,,0.00,meteohub,2013-04-30 04:27:00,
2013-04-29 23:32:00,65.3,57.2,29.76,NE,45,6.0,11.0,75,0.00,,,0.00,meteohub,2013-04-30 04:32:00,
2013-04-29 23:37:00,65.3,57.2,29.76,East,90,11.0,11.0,75,0.00,,,0.00,meteohub,2013-04-30 04:37:00,
2013-04-29 23:42:00,65.3,57.2,29.76,East,90,4.0,13.0,75,0.00,,,0.00,meteohub,2013-04-30 04:42:00,
2013-04-29 23:47:00,65.3,57.2,29.76,NE,45,8.0,13.0,75,0.00,,,0.00,meteohub,2013-04-30 04:47:00,
2013-04-29 23:52:00,65.1,57.0,29.76,East,90,7.0,13.0,75,0.00,,,0.00,meteohub,2013-04-30 04:52:00,
2013-04-29 23:57:00,65.1,57.0,29.76,East,90,8.0,12.0,75,0.00,,,0.00,meteohub,2013-04-30 04:57:00,